Погода Александровское

Погода Александровское : погода сейчас, прогноз погоды и архив. Всё, что Вы хотите узнать о погоде Александровское!

Хотите узнать прогноз погоды Александровское? Тогда Вам сюда: Погода Александровское

Поиск расширенной информации на нашем сайте:

Другие новости

Новости СМИ2

Главная страница сайта

Новости сайта

03.07.2017

Напоминаем, что на нашем специализированном сайте Метеоцентр.Азия вы можете получить высокодетализированные автоматические прогнозы погоды по пунктам России, СНГ и мира в авиационном формате (включающие направление и скорость ветра, видимость, явления погоды, количество и форму облачности, нижнюю и верхнюю границу облачности).

Рекомендуем: Пансионаты для отдыха с детьми родители с детьми.

Погода Александровское - сегодня

Время (UTC), дата Ветер
(°,м/с) 
Видим.   Явления Облачность Т
(°С)
Тd
(°С)
f(%) Тe
(°С)
Pmin
(гПа)
dP
(гПа)
Po
(мм)
O2
(г/м3)
Тmin Tmax R s Состояние
почвы
12 22.09.17 320 (СЗ) 5{11}  2000 м  слаб. ливневой снег  10/10 480 м кучево-дожд. 
[Cb cap]
-0.3 -1.5 92 -3  1019.7  1.8  760  307    +2.8     
15 22.09.17 310 (СЗ) 5-10{11}  30000 м  слаб. ливневой снег  10/10 1260 м кучево-дожд. 
[Cb cap]
+0.9 -3.4 73 -2  1020.1  0.5  761  306           
18 22.09.17 330 (СЗ) 5{11}  45000 м  слаб. ливневой снег  10/10 1300 м кучево-дожд. 
[Cb cap]
+1.1 -3.7 70 -2  1020.4  0.3  761  306           
21 22.09.17 320 (СЗ) 5{11}  28000 м  слаб. ливневой снег  10/10 900 м кучево-дожд. 
[Cb cap]
+0.4 -2.8 79 -3  1020.6  0.1  761  306           
00 23.09.17 330 (СЗ) 5{11}  35000 м  слаб. ливневой снег  10/10 840 м кучево-дожд. 
[Cb cap]
+0.4 -3.7 74 -3  1021.3  0.8  761  307  -0.3    0.0    мокрая 
03 23.09.17 340 (С) 6-11{13}  20000 м  {ливн. осадки}  9/9 800 м кучево-дожд. 
[Cb cap]
+0.7 -4.3 69 -3  1022  0.6  762  307           
06 23.09.17 330 (СЗ) 6-12{13}  20000 м  {ливн. осадки}  9/8 600 м средняя 
[Sc|Ac trans]
+2.5 -3.9 63 1022  0.1  762  305           
09 23.09.17 330 (СЗ) 5{13}  20000 м    9/9 840 м 
[Sc]
+3 -2.9 65 +1  1022.6  0.6  762  304           
12 23.09.17 340 (С) 4{11}  20000 м    8/5 600 м средняя 
[Sc|Ac trans]
+4.6 -3 58 +3  1023.5  763  303    +5  0.0     
15 23.09.17 320 (СЗ) 3{10}  50000 м    3/3 600 м 
[Sc]
+1.5 -3 72 1025.7  765  307           
18 23.09.17 330 (СЗ) 50000 м    ясно 
-0.4 -3.2 81 -3  1027  1.3  766  309           
21 23.09.17 320 (СЗ) 50000 м    ясно 
-1.6 -3.8 85 -4  1028.1  766  311           
00 24.09.17 310 (СЗ) 50000 м    ясно 
-2.4 -4.3 87 -4  1029.2  1.1  767  312  -2.4        замёрзшая 
03 24.09.17 330 (СЗ) 20000 м    1/0 верхняя 
[Ci fib]
-0.4 -3.3 81 -2  1030.8  1.7  768  311  -2.7         
06 24.09.17 320 (СЗ) 5{10}  20000 м    8/8 1080 м 
[Cu Sc]
+2.7 -4.3 60 1031.6  0.9  769  307           
09 24.09.17 310 (СЗ) 20000 м    6/6 1000 м 
[Cu Sc]
+2.8 -5 56 +1  1032.3  0.6  770  308           
12 24.09.17 290 (З) 20000 м    9/9 1140 м 
[Sc]
+1.8 -4.4 63 +1  1032.9  0.6  770  309    +4.1       
15 24.09.17 290 (З) 50000 м    9/9 1080 м 
[Sc]
+0.9 -4.1 69 1032.8  -0.1  770  310           
18 24.09.17 220 (ЮЗ) 50000 м    9/9 1170 м 
[Sc]
+0.1 -3.5 77 +1  1032.3  -0.5  770  310           
21 24.09.17 220 (ЮЗ) 50000 м    9/9 1470 м 
[Sc]
-0.1 -3.2 80 -1  1031.2  -1.1  769  310           
00 25.09.17 210 (ЮЗ) 50000 м    10/10 1500 м 
[Sc]
-0.1 -2.7 83 -1  1030.3  -0.9  768  310  -0.2        влажная 
03 25.09.17 230 (ЮЗ) 20000 м    10/8 660 м средняя 
[Sc|Ac As]
+1.3 -1.9 79 +1  1029.6  -0.7  768  308           
06 25.09.17 230 (ЮЗ) 20000 м  {ливн. осадки}  10/10 1380 м кучево-дожд. 
[Cb cap]
+2.6 -0 83 +1  1029.3  -0.3  767  306           
09 25.09.17 250 (З) 20000 м    10/10 1500 м 
[Sc]
+5 -0.3 69 +5  1029  -0.2  767  304           
12 25.09.17 240 (ЮЗ) 20000 м  {дождь}  10/10 1500 м 
[Sc]
+4.4 +0.3 75 +3  1029  767  304    +5.1  0.0     
Время (UTC), дата Ветер
(°,м/с) 
Видим.   Явления Облачность Т
(°С)
Тd
(°С)
f(%) Тe
(°С)
Pmin
(гПа)
dP
(гПа)
Po
(мм)
O2
(г/м3)
Тmin Tmax R s Состояние
почвы

Для получения пояснительной информации подведите курсор к названию столбца.

ПОГОДА Александровское - архив

Всё, что Вы хотите узнать о погоде Александровское - удобно и подробно!

Выберите нужную дату (начиная с 1 января 2015* года) и нажмите кнопку "Найти".
Будут отображены архивные сводки погоды по пункту Александровское, начиная с указанной даты.


Отображать данные в формате CSV (для использования в таблицах Excel)


Внимание! Наш архив погоды предназначен исключительно для личного некоммерческого использования в познавательных целях. Если Вам необходимы официальные справки о состоянии погоды (для производственных, юридических, коммерческих и т.п. целей), обращайтесь в органы Росгидромета.

*Примечание: данная дата относится к архиву по метеостанциям СССР (Россия, СНГ, Балтия).
Архив по метеостанциям Зарубежной Европы и Азии (кроме Китая) хранится 10 дней, по другим регионам земного шара (Китай, Африка, Америка, Австралия, Океания) - 1 день.

Александровское - район местоположения метеостанции


Название, широта, долгота, высота метеостанции:
Александровское 60.4°ш. 77.9°д. 48 м над ур. моря [Российская Федерация]

Дополнительная информация

В oтличие oт бoльшинства пoгoдных сайтoв мы публикуем пoдрoбную метеoинфoрмацию в детальнoм прoфессиoнальнoм фoрмате.

Характеристики температуры и влажнoсти вoздуха измеряются на высoте 2 м в тени вдали oт зданий и деревьев.
Скoрoсть ветра измеряется на высoте 10 м (на урoвне рoста челoвека скoрoсть ветра ниже в 1.5-2 раза). Если метеoстанция нахoдится в гoрoде или в лесу, тo скoрoсть ветра занижена на 2-4 м/с пo сравнению с oткрытым местoм. Скoрoсть ветра над акватoриями крупных рек и oзёр, а также на вершинах хoлмoв на 2-5 м/с выше, чем в oбычных услoвиях.
Атмoсфернoе давление в разных тoчках местнoсти мoжет значительнo oтличаться oт давления на метеoстанции, в зависимoсти oт услoвий рельефа (при пoдъёме на 10 м давление пoнижается примернo на 1 мм рт.ст.).